Regional Weather Roundup
Issued by NWS

Home | Current Version | Previous Version | Text Only | Print | Product List | Glossary On
Versions: 1 2 3 4 5 6 7 8 9 10 11 12 13 14 15 16 17 18 19 20 21 22 23 24 25 26 27 28 29 30 31 32 33 34 35 36 37 38 39 40 41 42 43 44 45 46 47 48 49 50
000
ASUS42 KKEY 211110
RWRKEY

FLORIDA REGIONAL WEATHER ROUNDUP FOR THE FLORIDA KEYS
NATIONAL WEATHER SERVICE KEY WEST FLORIDA
600 AM EST SUN DEC 21 2014

...SOUTH FLORIDA AND THE KEYS...

CITY           SKY/WX    TMP DP  RH WIND       PRES   REMARKS
FORT MYERS     MOCLDY    63  61  93 SE6       30.05S
SW REGIONAL AP PTCLDY    59  58  96 CALM      30.06S
NAPLES         PTCLDY    62  61  96 E3        30.05S
MIAMI          MOCLDY    66  63  90 CALM      30.07R
WEST KENDALL   FOG      N/A N/A N/A CALM      30.07R VSB 3/4
HOMESTEAD      CLEAR     61  60  95 N2        30.06R
MARATHON       PTCLDY    73  69  87 SE6       30.05R
BOCA CHICA NAS MOCLDY    73  68  84 E5        30.05R
KEY WEST INTL  MOCLDY    75  68  78 E7        30.05R

...INTERNATIONAL WEATHER...

CITY           SKY/WX    TMP DP  RH WIND       PRES   REMARKS
NASSAU BAHAMAS NOT AVBL
CANCUN MEXICO  LGT RAIN  73  73 100 S6        29.95R
COZUMEL MEXICO PTCLDY    70  70 100 S3        29.95F

ADJACENT COASTAL WATERS...

STATION/POSITION TIME  SKY/WX   TEMP    WIND        PRES    WAVE
                                AIR SEA DIR/SP/G            HT/PER
                 (UTC)          (F)     (DEG/KT/KT) (MB)    (FT/S)
PULASKI SHOAL LI 1000            73      90/ 10/ 11 1016.5F
SAND KEY         1041            76     120/ 11/ 13 1017.2R
SOMBRERO KEY     1100            76     140/ 13/ 15 1018.1R
LONG KEY         1000            72 71  110/  5/  6 1017.8F
MOLASSES REEF    1100            74 76  140/ 12/ 14 1017.7R
FOWEY ROCKS      NOT AVBL
Buoy 42080       NOT AVBL

$$


USA.gov is the U.S. government's official web portal to all federal, state and local government web resources and services.